Saint Bonnet de Bellac- Haute Vienne - France
Donnes mto: mercredi, 04/01/2012
Date Horaire Temp. E. Hum. E. P.atmo. Pluie Vent Direction Direction Ensoleilleme Solaire P. de rose Temp au vent Rafales
04/01/2012 00:00 9,8 C 94 % 1019,5 hPa 0,1 mm 17,3 km/h (3 Bft) SO 225 0 min 0 W/m 8,9 C 7,4 C 18,7 km/h (3 Bft)
04/01/2012 00:10 9,8 C 94 % 1019,3 hPa 0,1 mm 12,2 km/h (2 Bft) SO 225 0 min 0 W/m 8,9 C 8,0 C 22,7 km/h (4 Bft)
04/01/2012 00:20 9,7 C 94 % 1019,2 hPa 0,1 mm 15,1 km/h (3 Bft) S-SO 202 0 min 0 W/m 8,8 C 7,5 C 25,2 km/h (4 Bft)
04/01/2012 00:30 9,6 C 94 % 1019,0 hPa 0,2 mm 20,9 km/h (4 Bft) S-SO 202 0 min 0 W/m 8,7 C 6,8 C 27,4 km/h (5 Bft)
04/01/2012 00:40 9,6 C 94 % 1019,0 hPa 0,2 mm 14,8 km/h (3 Bft) S-SO 202 0 min 0 W/m 8,7 C 7,4 C 24,1 km/h (4 Bft)
04/01/2012 00:50 9,6 C 95 % 1018,7 hPa 0,2 mm 15,5 km/h (3 Bft) S-SO 202 0 min 0 W/m 8,8 C 7,4 C 20,5 km/h (4 Bft)
04/01/2012 01:00 9,5 C 95 % 1018,5 hPa 0,2 mm 14,4 km/h (3 Bft) SO 225 0 min 0 W/m 8,7 C 7,4 C 21,2 km/h (4 Bft)
04/01/2012 01:10 9,6 C 95 % 1018,1 hPa 0,2 mm 10,8 km/h (2 Bft) SO 225 0 min 0 W/m 8,8 C 8,0 C 25,2 km/h (4 Bft)
04/01/2012 01:20 9,7 C 95 % 1017,9 hPa 0,3 mm 12,6 km/h (3 Bft) SO 225 0 min 0 W/m 8,9 C 7,9 C 18,4 km/h (3 Bft)
04/01/2012 01:30 9,8 C 95 % 1017,8 hPa 0,1 mm 11,9 km/h (2 Bft) S-SO 202 0 min 0 W/m 9,0 C 8,1 C 20,5 km/h (4 Bft)
04/01/2012 01:40 9,9 C 95 % 1017,7 hPa 0,1 mm 16,9 km/h (3 Bft) S-SO 202 0 min 0 W/m 9,1 C 7,6 C 32,8 km/h (5 Bft)
04/01/2012 01:50 9,9 C 95 % 1017,8 hPa 0,3 mm 19,4 km/h (3 Bft) SO 225 0 min 0 W/m 9,1 C 7,3 C 24,8 km/h (4 Bft)
04/01/2012 02:02 10,1 C 95 % 1018,3 hPa 0,2 mm 7,2 km/h (2 Bft) SO 225 0 min 0 W/m 9,3 C 10,1 C 10,4 km/h (2 Bft)
04/01/2012 02:10 10,1 C 95 % 1019,3 hPa 0,4 mm 9,4 km/h (2 Bft) O 270 0 min 0 W/m 9,3 C 10,1 C 20,5 km/h (4 Bft)
04/01/2012 02:20 10,0 C 95 % 1019,8 hPa 0,1 mm 12,6 km/h (3 Bft) O-SO 247 0 min 0 W/m 9,2 C 8,2 C 28,4 km/h (5 Bft)
04/01/2012 02:30 9,8 C 95 % 1020,0 hPa 0,2 mm 7,6 km/h (2 Bft) O 270 0 min 0 W/m 9,0 C 8,9 C 14,0 km/h (3 Bft)
04/01/2012 02:40 9,5 C 95 % 1020,0 hPa 0,2 mm 1,8 km/h (1 Bft) O 270 0 min 0 W/m 8,7 C 9,5 C 7,9 km/h (2 Bft)
04/01/2012 02:50 9,2 C 95 % 1020,2 hPa 0,1 mm 0,4 km/h (0 Bft) O-SO 247 0 min 0 W/m 8,4 C 9,2 C 4,0 km/h (1 Bft)
04/01/2012 03:00 8,9 C 94 % 1020,7 hPa 0,1 mm 4,0 km/h (1 Bft) SO 225 0 min 0 W/m 8,0 C 8,9 C 12,2 km/h (2 Bft)
04/01/2012 03:10 8,8 C 94 % 1021,2 hPa 0,1 mm 7,2 km/h (2 Bft) SO 225 0 min 0 W/m 7,9 C 7,8 C 13,7 km/h (3 Bft)
04/01/2012 03:20 8,6 C 94 % 1021,2 hPa 0,1 mm 2,5 km/h (1 Bft) O-NO 292 0 min 0 W/m 7,7 C 8,6 C 11,2 km/h (2 Bft)
04/01/2012 03:30 8,5 C 94 % 1021,6 hPa 0,0 mm 4,7 km/h (1 Bft) SO 225 0 min 0 W/m 7,6 C 8,2 C 4,7 km/h (1 Bft)
04/01/2012 03:40 8,3 C 94 % 1021,7 hPa 0,0 mm 1,8 km/h (1 Bft) O 270 0 min 0 W/m 7,4 C 8,3 C 7,6 km/h (2 Bft)
04/01/2012 03:50 8,3 C 94 % 1022,0 hPa 0,0 mm 1,1 km/h (1 Bft) O-SO 247 0 min 0 W/m 7,4 C 8,3 C 3,6 km/h (1 Bft)
04/01/2012 04:00 8,1 C 94 % 1022,1 hPa 0,0 mm 1,8 km/h (1 Bft) O-NO 292 0 min 0 W/m 7,2 C 8,1 C 3,2 km/h (1 Bft)
04/01/2012 04:10 7,9 C 94 % 1022,4 hPa 0,0 mm 0,4 km/h (0 Bft) O 270 0 min 0 W/m 7,0 C 7,9 C 2,9 km/h (1 Bft)
04/01/2012 04:20 7,8 C 94 % 1022,5 hPa 0,0 mm 2,5 km/h (1 Bft) O 270 0 min 0 W/m 6,9 C 7,8 C 2,5 km/h (1 Bft)
04/01/2012 04:30 7,7 C 94 % 1022,7 hPa 0,0 mm 2,5 km/h (1 Bft) O 270 0 min 0 W/m 6,8 C 7,7 C 7,6 km/h (2 Bft)
04/01/2012 04:40 7,5 C 94 % 1022,8 hPa 0,0 mm 0,4 km/h (0 Bft) O-NO 292 0 min 0 W/m 6,6 C 7,5 C 3,2 km/h (1 Bft)
04/01/2012 04:50 7,5 C 94 % 1023,0 hPa 0,0 mm 0,7 km/h (0 Bft) O-SO 247 0 min 0 W/m 6,6 C 7,5 C 4,3 km/h (1 Bft)
04/01/2012 05:00 7,4 C 94 % 1023,2 hPa 0,0 mm 2,2 km/h (1 Bft) O-NO 292 0 min 0 W/m 6,5 C 7,4 C 6,1 km/h (2 Bft)
04/01/2012 05:10 7,3 C 94 % 1023,5 hPa 0,0 mm 1,8 km/h (1 Bft) O 270 0 min 0 W/m 6,4 C 7,3 C 7,9 km/h (2 Bft)
04/01/2012 05:20 7,1 C 94 % 1023,8 hPa 0,0 mm 2,9 km/h (1 Bft) O-SO 247 0 min 0 W/m 6,2 C 7,1 C 2,9 km/h (1 Bft)
04/01/2012 05:30 6,8 C 94 % 1023,9 hPa 0,0 mm 1,1 km/h (1 Bft) O 270 0 min 0 W/m 5,9 C 6,8 C 3,6 km/h (1 Bft)
04/01/2012 05:40 6,6 C 93 % 1024,1 hPa 0,0 mm 4,3 km/h (1 Bft) NO 315 0 min 0 W/m 5,6 C 6,6 C 6,5 km/h (2 Bft)
04/01/2012 05:50 6,5 C 93 % 1024,1 hPa 0,0 mm 1,1 km/h (1 Bft) O 270 0 min 0 W/m 5,5 C 6,5 C 6,1 km/h (2 Bft)
04/01/2012 06:00 6,3 C 93 % 1024,4 hPa 0,0 mm 0,0 km/h (0 Bft) O 270 0 min 0 W/m 5,3 C 6,3 C 1,4 km/h (1 Bft)
04/01/2012 06:10 6,3 C 94 % 1024,7 hPa 0,0 mm 0,7 km/h (0 Bft) NO 315 0 min 0 W/m 5,4 C 6,3 C 6,1 km/h (2 Bft)
04/01/2012 06:20 6,4 C 94 % 1025,0 hPa 0,0 mm 0,4 km/h (0 Bft) O-NO 292 0 min 0 W/m 5,5 C 6,4 C 0,4 km/h (0 Bft)
04/01/2012 06:30 6,4 C 94 % 1025,1 hPa 0,0 mm 4,7 km/h (1 Bft) O 270 0 min 0 W/m 5,5 C 5,8 C 4,7 km/h (1 Bft)
04/01/2012 06:40 6,3 C 94 % 1025,3 hPa 0,0 mm 1,8 km/h (1 Bft) O-SO 247 0 min 0 W/m 5,4 C 6,3 C 5,0 km/h (1 Bft)
04/01/2012 06:50 6,2 C 94 % 1025,4 hPa 0,0 mm 1,1 km/h (1 Bft) O-NO 292 0 min 0 W/m 5,3 C 6,2 C 7,9 km/h (2 Bft)
04/01/2012 07:00 6,0 C 94 % 1025,7 hPa 0,0 mm 1,8 km/h (1 Bft) O-NO 292 0 min 0 W/m 5,1 C 6,0 C 9,0 km/h (2 Bft)
04/01/2012 07:10 5,8 C 94 % 1026,1 hPa 0,0 mm 0,4 km/h (0 Bft) O 270 0 min 0 W/m 4,9 C 5,8 C 4,3 km/h (1 Bft)
04/01/2012 07:20 5,6 C 94 % 1026,1 hPa 0,0 mm 0,4 km/h (0 Bft) O 270 0 min 0 W/m 4,7 C 5,6 C 0,4 km/h (0 Bft)
04/01/2012 07:30 5,4 C 94 % 1026,5 hPa 0,0 mm 0,0 km/h (0 Bft) O 270 0 min 0 W/m 4,5 C 5,4 C 1,4 km/h (1 Bft)
04/01/2012 07:40 5,2 C 94 % 1026,7 hPa 0,0 mm 0,7 km/h (0 Bft) O 270 0 min 0 W/m 4,3 C 5,2 C 3,6 km/h (1 Bft)
04/01/2012 07:50 5,1 C 94 % 1026,8 hPa 0,0 mm 0,0 km/h (0 Bft) O-SO 247 0 min 0 W/m 4,2 C 5,1 C 0,0 km/h (0 Bft)
04/01/2012 08:00 4,8 C 94 % 1027,0 hPa 0,0 mm 0,0 km/h (0 Bft) SO 225 0 min 0 W/m 3,9 C 4,8 C 0,0 km/h (0 Bft)
04/01/2012 08:10 4,6 C 94 % 1027,2 hPa 0,0 mm 0,0 km/h (0 Bft) SO 225 0 min 0 W/m 3,7 C 4,6 C 2,9 km/h (1 Bft)
04/01/2012 08:20 4,5 C 94 % 1027,5 hPa 0,0 mm 0,0 km/h (0 Bft) O 270 0 min 0 W/m 3,6 C 4,5 C 0,0 km/h (0 Bft)
04/01/2012 08:30 4,4 C 94 % 1027,7 hPa 0,0 mm 0,0 km/h (0 Bft) O 270 0 min 0 W/m 3,5 C 4,4 C 4,3 km/h (1 Bft)
04/01/2012 08:40 4,3 C 94 % 1027,7 hPa 0,0 mm 0,0 km/h (0 Bft) O-SO 247 0 min 0 W/m 3,4 C 4,3 C 0,0 km/h (0 Bft)
04/01/2012 08:50 4,2 C 94 % 1027,8 hPa 0,0 mm 0,4 km/h (0 Bft) O-SO 247 0 min 0 W/m 3,3 C 4,2 C 3,6 km/h (1 Bft)
04/01/2012 09:00 4,1 C 94 % 1028,0 hPa 0,0 mm 0,0 km/h (0 Bft) O-SO 247 0 min 0 W/m 3,2 C 4,1 C 0,0 km/h (0 Bft)
04/01/2012 09:10 4,1 C 94 % 1028,2 hPa 0,0 mm 0,0 km/h (0 Bft) O-SO 247 0 min 0 W/m 3,2 C 4,1 C 0,0 km/h (0 Bft)
04/01/2012 09:20 4,2 C 95 % 1028,3 hPa 0,0 mm 0,0 km/h (0 Bft) O-SO 247 0 min 0 W/m 3,5 C 4,2 C 0,0 km/h (0 Bft)
04/01/2012 09:30 4,5 C 95 % 1028,5 hPa 0,0 mm 0,0 km/h (0 Bft) SO 225 0 min 0 W/m 3,8 C 4,5 C 0,0 km/h (0 Bft)
04/01/2012 09:40 4,8 C 95 % 1028,5 hPa 0,0 mm 0,4 km/h (0 Bft) O-SO 247 0 min 0 W/m 4,1 C 4,8 C 3,2 km/h (1 Bft)
04/01/2012 09:50 5,3 C 95 % 1028,6 hPa 0,0 mm 2,9 km/h (1 Bft) O 270 0 min 0 W/m 4,6 C 5,3 C 4,3 km/h (1 Bft)
04/01/2012 10:00 5,6 C 95 % 1028,7 hPa 0,0 mm 1,4 km/h (1 Bft) SO 225 0 min 0 W/m 4,9 C 5,6 C 4,3 km/h (1 Bft)
04/01/2012 10:10 6,1 C 94 % 1029,0 hPa 0,0 mm 2,9 km/h (1 Bft) O-SO 247 0 min 0 W/m 5,2 C 6,1 C 6,1 km/h (2 Bft)
04/01/2012 10:20 6,5 C 93 % 1029,0 hPa 0,0 mm 4,0 km/h (1 Bft) O 270 0 min 0 W/m 5,5 C 6,5 C 6,5 km/h (2 Bft)
04/01/2012 10:30 6,8 C 92 % 1029,2 hPa 0,0 mm 0,4 km/h (0 Bft) SO 225 0 min 0 W/m 5,6 C 6,8 C 3,2 km/h (1 Bft)
04/01/2012 10:40 7,2 C 92 % 1029,7 hPa 0,0 mm 2,2 km/h (1 Bft) O 270 0 min 0 W/m 6,0 C 7,2 C 8,6 km/h (2 Bft)
04/01/2012 10:50 7,4 C 90 % 1029,5 hPa 0,0 mm 0,7 km/h (0 Bft) O 270 0 min 0 W/m 5,9 C 7,4 C 3,2 km/h (1 Bft)
04/01/2012 11:00 7,9 C 89 % 1029,7 hPa 0,0 mm 0,0 km/h (0 Bft) O 270 0 min 0 W/m 6,2 C 7,9 C 0,0 km/h (0 Bft)
04/01/2012 11:10 8,2 C 88 % 1029,6 hPa 0,0 mm 4,0 km/h (1 Bft) O-SO 247 0 min 0 W/m 6,3 C 8,2 C 4,0 km/h (1 Bft)
04/01/2012 11:20 8,5 C 86 % 1029,6 hPa 0,0 mm 6,5 km/h (2 Bft) O-SO 247 0 min 0 W/m 6,3 C 7,6 C 6,5 km/h (2 Bft)
04/01/2012 11:30 8,9 C 87 % 1029,7 hPa 0,0 mm 2,5 km/h (1 Bft) O-SO 247 0 min 0 W/m 6,9 C 8,9 C 6,5 km/h (2 Bft)
04/01/2012 11:40 9,3 C 84 % 1029,7 hPa 0,0 mm 1,4 km/h (1 Bft) O 270 0 min 0 W/m 6,7 C 9,3 C 7,2 km/h (2 Bft)
04/01/2012 11:50 9,6 C 84 % 1030,2 hPa 0,0 mm 1,1 km/h (1 Bft) O-NO 292 0 min 0 W/m 7,0 C 9,6 C 7,9 km/h (2 Bft)
04/01/2012 12:00 10,1 C 83 % 1030,4 hPa 0,0 mm 0,4 km/h (0 Bft) NO 315 0 min 0 W/m 7,3 C 10,1 C 4,3 km/h (1 Bft)
04/01/2012 12:10 10,5 C 82 % 1030,4 hPa 0,0 mm 1,1 km/h (1 Bft) O-SO 247 0 min 0 W/m 7,6 C 10,5 C 4,0 km/h (1 Bft)
04/01/2012 12:20 10,6 C 80 % 1030,4 hPa 0,0 mm 0,7 km/h (0 Bft) N 360 0 min 0 W/m 7,3 C 10,6 C 3,6 km/h (1 Bft)
04/01/2012 12:30 10,8 C 78 % 1030,0 hPa 0,0 mm 1,1 km/h (1 Bft) O-SO 247 0 min 0 W/m 7,1 C 10,8 C 3,2 km/h (1 Bft)
04/01/2012 12:40 11,0 C 80 % 1030,1 hPa 0,0 mm 0,7 km/h (0 Bft) O 270 0 min 0 W/m 7,7 C 11,0 C 3,6 km/h (1 Bft)
04/01/2012 12:50 11,2 C 76 % 1029,9 hPa 0,0 mm 4,3 km/h (1 Bft) O-NO 292 0 min 0 W/m 7,1 C 11,2 C 4,3 km/h (1 Bft)
04/01/2012 13:00 11,1 C 76 % 1029,8 hPa 0,0 mm 1,1 km/h (1 Bft) SO 225 0 min 0 W/m 7,0 C 11,1 C 6,1 km/h (2 Bft)
04/01/2012 13:10 11,1 C 77 % 1029,8 hPa 0,0 mm 1,8 km/h (1 Bft) O-SO 247 0 min 0 W/m 7,2 C 11,1 C 6,1 km/h (2 Bft)
04/01/2012 13:20 10,9 C 76 % 1029,8 hPa 0,0 mm 4,7 km/h (1 Bft) O-NO 292 0 min 0 W/m 6,8 C 10,9 C 9,7 km/h (2 Bft)
04/01/2012 13:30 10,9 C 76 % 1029,8 hPa 0,0 mm 5,4 km/h (2 Bft) O-NO 292 0 min 0 W/m 6,8 C 10,9 C 5,4 km/h (2 Bft)
04/01/2012 13:40 10,9 C 74 % 1029,8 hPa 0,0 mm 8,6 km/h (2 Bft) O 270 0 min 0 W/m 6,5 C 10,9 C 8,6 km/h (2 Bft)
04/01/2012 13:50 10,9 C 73 % 1029,9 hPa 0,0 mm 5,8 km/h (2 Bft) O 270 0 min 0 W/m 6,3 C 10,9 C 6,8 km/h (2 Bft)
04/01/2012 14:00 10,9 C 76 % 1030,0 hPa 0,0 mm 0,0 km/h (0 Bft) O-SO 247 0 min 0 W/m 6,8 C 10,9 C 0,0 km/h (0 Bft)
04/01/2012 14:10 10,9 C 73 % 1030,1 hPa 0,0 mm 3,2 km/h (1 Bft) O 270 0 min 0 W/m 6,3 C 10,9 C 12,2 km/h (2 Bft)
04/01/2012 14:20 10,8 C 74 % 1030,0 hPa 0,0 mm 2,2 km/h (1 Bft) O-SO 247 0 min 0 W/m 6,4 C 10,8 C 6,5 km/h (2 Bft)
04/01/2012 14:30 10,8 C 73 % 1029,8 hPa 0,0 mm 2,9 km/h (1 Bft) O-SO 247 0 min 0 W/m 6,2 C 10,8 C 3,6 km/h (1 Bft)
04/01/2012 14:40 10,5 C 73 % 1029,5 hPa 0,0 mm 1,4 km/h (1 Bft) NO 315 0 min 0 W/m 5,9 C 10,5 C 6,5 km/h (2 Bft)
04/01/2012 14:50 10,6 C 73 % 1029,2 hPa 0,0 mm 0,7 km/h (0 Bft) S-SO 202 0 min 0 W/m 6,0 C 10,6 C 4,3 km/h (1 Bft)
04/01/2012 15:00 10,6 C 72 % 1028,8 hPa 0,0 mm 2,2 km/h (1 Bft) O-SO 247 0 min 0 W/m 5,8 C 10,6 C 6,1 km/h (2 Bft)
04/01/2012 15:10 10,3 C 71 % 1029,0 hPa 0,0 mm 2,9 km/h (1 Bft) SO 225 0 min 0 W/m 5,3 C 10,3 C 3,6 km/h (1 Bft)
04/01/2012 15:20 10,1 C 72 % 1028,7 hPa 0,0 mm 3,6 km/h (1 Bft) O-NO 292 0 min 0 W/m 5,3 C 10,1 C 3,6 km/h (1 Bft)
04/01/2012 15:30 9,8 C 71 % 1028,9 hPa 0,0 mm 5,8 km/h (2 Bft) SO 225 0 min 0 W/m 4,8 C 9,3 C 11,9 km/h (2 Bft)
04/01/2012 15:40 9,6 C 72 % 1028,8 hPa 0,0 mm 1,8 km/h (1 Bft) O 270 0 min 0 W/m 4,8 C 9,6 C 9,7 km/h (2 Bft)
04/01/2012 15:50 9,6 C 71 % 1028,8 hPa 0,0 mm 3,6 km/h (1 Bft) O-SO 247 0 min 0 W/m 4,6 C 9,6 C 7,2 km/h (2 Bft)
04/01/2012 16:00 9,4 C 71 % 1028,9 hPa 0,0 mm 6,1 km/h (2 Bft) O-SO 247 0 min 0 W/m 4,4 C 8,8 C 18,0 km/h (3 Bft)
04/01/2012 16:10 9,3 C 72 % 1029,1 hPa 0,0 mm 4,0 km/h (1 Bft) O-NO 292 0 min 0 W/m 4,5 C 9,3 C 7,9 km/h (2 Bft)
04/01/2012 16:20 9,1 C 73 % 1029,1 hPa 0,0 mm 1,8 km/h (1 Bft) O-SO 247 0 min 0 W/m 4,5 C 9,1 C 7,2 km/h (2 Bft)
04/01/2012 16:30 8,9 C 74 % 1029,1 hPa 0,0 mm 3,2 km/h (1 Bft) O-SO 247 0 min 0 W/m 4,5 C 8,9 C 6,1 km/h (2 Bft)
04/01/2012 16:40 8,8 C 75 % 1029,0 hPa 0,0 mm 1,1 km/h (1 Bft) O-SO 247 0 min 0 W/m 4,6 C 8,8 C 3,6 km/h (1 Bft)
04/01/2012 16:50 8,4 C 76 % 1028,9 hPa 0,0 mm 0,0 km/h (0 Bft) O-SO 247 0 min 0 W/m 4,4 C 8,4 C 0,0 km/h (0 Bft)
04/01/2012 17:00 7,9 C 77 % 1028,8 hPa 0,0 mm 1,4 km/h (1 Bft) S-SO 202 0 min 0 W/m 4,1 C 7,9 C 4,0 km/h (1 Bft)
04/01/2012 17:10 7,6 C 78 % 1028,9 hPa 0,0 mm 0,4 km/h (0 Bft) SO 225 0 min 0 W/m 4,0 C 7,6 C 3,2 km/h (1 Bft)
04/01/2012 17:20 7,4 C 80 % 1028,7 hPa 0,0 mm 3,6 km/h (1 Bft) SO 225 0 min 0 W/m 4,2 C 7,4 C 6,5 km/h (2 Bft)
04/01/2012 17:30 7,4 C 80 % 1028,6 hPa 0,0 mm 1,8 km/h (1 Bft) SO 225 0 min 0 W/m 4,2 C 7,4 C 3,2 km/h (1 Bft)
04/01/2012 17:40 7,4 C 80 % 1028,6 hPa 0,0 mm 3,2 km/h (1 Bft) SO 225 0 min 0 W/m 4,2 C 7,4 C 4,3 km/h (1 Bft)
04/01/2012 17:50 7,4 C 80 % 1028,6 hPa 0,0 mm 1,4 km/h (1 Bft) O-SO 247 0 min 0 W/m 4,2 C 7,4 C 3,6 km/h (1 Bft)
04/01/2012 18:00 7,4 C 81 % 1028,5 hPa 0,0 mm 2,9 km/h (1 Bft) S-SO 202 0 min 0 W/m 4,4 C 7,4 C 7,6 km/h (2 Bft)
04/01/2012 18:10 7,4 C 81 % 1028,3 hPa 0,0 mm 2,9 km/h (1 Bft) SO 225 0 min 0 W/m 4,4 C 7,4 C 4,0 km/h (1 Bft)
04/01/2012 18:20 7,3 C 81 % 1028,0 hPa 0,0 mm 4,7 km/h (1 Bft) SO 225 0 min 0 W/m 4,3 C 6,8 C 7,6 km/h (2 Bft)
04/01/2012 18:30 7,2 C 82 % 1027,9 hPa 0,0 mm 6,1 km/h (2 Bft) S-SO 202 0 min 0 W/m 4,3 C 6,2 C 8,3 km/h (2 Bft)
04/01/2012 18:40 7,1 C 82 % 1027,8 hPa 0,0 mm 7,9 km/h (2 Bft) S-SO 202 0 min 0 W/m 4,2 C 5,6 C 10,1 km/h (2 Bft)
04/01/2012 18:50 6,9 C 82 % 1028,1 hPa 0,0 mm 4,7 km/h (1 Bft) SO 225 0 min 0 W/m 4,0 C 6,3 C 8,6 km/h (2 Bft)
04/01/2012 19:00 6,9 C 83 % 1028,1 hPa 0,0 mm 6,8 km/h (2 Bft) SO 225 0 min 0 W/m 4,2 C 5,7 C 6,8 km/h (2 Bft)
04/01/2012 19:10 7,1 C 83 % 1028,2 hPa 0,0 mm 5,4 km/h (2 Bft) O-SO 247 0 min 0 W/m 4,4 C 6,3 C 10,1 km/h (2 Bft)
04/01/2012 19:20 7,1 C 84 % 1028,3 hPa 0,0 mm 3,6 km/h (1 Bft) SO 225 0 min 0 W/m 4,6 C 7,1 C 6,1 km/h (2 Bft)
04/01/2012 19:30 7,1 C 84 % 1028,3 hPa 0,0 mm 4,3 km/h (1 Bft) SO 225 0 min 0 W/m 4,6 C 7,1 C 4,7 km/h (1 Bft)
04/01/2012 19:40 7,1 C 84 % 1028,3 hPa 0,0 mm 2,5 km/h (1 Bft) SO 225 0 min 0 W/m 4,6 C 7,1 C 4,0 km/h (1 Bft)
04/01/2012 19:50 7,1 C 84 % 1028,5 hPa 0,0 mm 0,7 km/h (0 Bft) O-SO 247 0 min 0 W/m 4,6 C 7,1 C 4,0 km/h (1 Bft)
04/01/2012 20:00 7,2 C 85 % 1028,5 hPa 0,0 mm 5,0 km/h (1 Bft) SO 225 0 min 0 W/m 4,9 C 6,6 C 7,6 km/h (2 Bft)
04/01/2012 20:10 7,3 C 85 % 1028,5 hPa 0,0 mm 5,4 km/h (2 Bft) S 180 0 min 0 W/m 4,9 C 6,6 C 9,7 km/h (2 Bft)
04/01/2012 20:20 7,4 C 85 % 1028,5 hPa 0,0 mm 5,0 km/h (1 Bft) SO 225 0 min 0 W/m 5,0 C 6,8 C 9,4 km/h (2 Bft)
04/01/2012 20:30 7,4 C 85 % 1028,1 hPa 0,0 mm 7,2 km/h (2 Bft) O-SO 247 0 min 0 W/m 5,0 C 6,1 C 11,2 km/h (2 Bft)
04/01/2012 20:40 7,4 C 86 % 1027,8 hPa 0,0 mm 8,3 km/h (2 Bft) SO 225 0 min 0 W/m 5,2 C 5,9 C 10,1 km/h (2 Bft)
04/01/2012 20:50 7,4 C 86 % 1027,1 hPa 0,0 mm 9,4 km/h (2 Bft) SO 225 0 min 0 W/m 5,2 C 5,6 C 11,5 km/h (2 Bft)
04/01/2012 21:00 7,5 C 86 % 1027,5 hPa 0,0 mm 9,7 km/h (2 Bft) S-SO 202 0 min 0 W/m 5,3 C 5,7 C 15,8 km/h (3 Bft)
04/01/2012 21:10 7,5 C 87 % 1027,3 hPa 0,0 mm 7,2 km/h (2 Bft) O-SO 247 0 min 0 W/m 5,5 C 6,3 C 11,2 km/h (2 Bft)
04/01/2012 21:20 7,5 C 87 % 1027,3 hPa 0,0 mm 7,2 km/h (2 Bft) SO 225 0 min 0 W/m 5,5 C 6,3 C 11,5 km/h (2 Bft)
04/01/2012 21:30 7,6 C 87 % 1027,0 hPa 0,0 mm 7,6 km/h (2 Bft) O-SO 247 0 min 0 W/m 5,6 C 6,3 C 7,9 km/h (2 Bft)
04/01/2012 21:40 7,5 C 87 % 1027,0 hPa 0,0 mm 7,6 km/h (2 Bft) SO 225 0 min 0 W/m 5,5 C 6,2 C 9,7 km/h (2 Bft)
04/01/2012 21:50 7,4 C 87 % 1027,4 hPa 0,0 mm 5,8 km/h (2 Bft) SO 225 0 min 0 W/m 5,4 C 6,5 C 11,2 km/h (2 Bft)
04/01/2012 22:00 7,4 C 88 % 1027,0 hPa 0,0 mm 7,2 km/h (2 Bft) S-SO 202 0 min 0 W/m 5,5 C 6,1 C 9,4 km/h (2 Bft)
04/01/2012 22:10 7,4 C 88 % 1026,9 hPa 0,0 mm 4,7 km/h (1 Bft) SO 225 0 min 0 W/m 5,5 C 6,9 C 11,2 km/h (2 Bft)
04/01/2012 22:20 7,4 C 88 % 1026,5 hPa 0,0 mm 7,6 km/h (2 Bft) SO 225 0 min 0 W/m 5,5 C 6,0 C 8,3 km/h (2 Bft)
04/01/2012 22:30 7,4 C 89 % 1026,5 hPa 0,0 mm 6,5 km/h (2 Bft) SO 225 0 min 0 W/m 5,7 C 6,3 C 9,7 km/h (2 Bft)
04/01/2012 22:40 7,5 C 88 % 1026,4 hPa 0,0 mm 6,1 km/h (2 Bft) S-SO 202 0 min 0 W/m 5,6 C 6,6 C 11,9 km/h (2 Bft)
04/01/2012 22:50 7,6 C 88 % 1026,2 hPa 0,0 mm 6,8 km/h (2 Bft) S-SO 202 0 min 0 W/m 5,7 C 6,5 C 6,8 km/h (2 Bft)
04/01/2012 23:00 7,6 C 88 % 1026,0 hPa 0,0 mm 10,8 km/h (2 Bft) S-SO 202 0 min 0 W/m 5,7 C 5,6 C 10,8 km/h (2 Bft)
04/01/2012 23:10 7,6 C 87 % 1025,7 hPa 0,0 mm 12,2 km/h (2 Bft) S-SO 202 0 min 0 W/m 5,6 C 5,4 C 12,2 km/h (2 Bft)
04/01/2012 23:20 7,6 C 87 % 1025,4 hPa 0,0 mm 10,1 km/h (2 Bft) S-SO 202 0 min 0 W/m 5,6 C 5,7 C 10,1 km/h (2 Bft)
04/01/2012 23:30 7,7 C 87 % 1025,3 hPa 0,0 mm 10,4 km/h (2 Bft) SO 225 0 min 0 W/m 5,7 C 5,8 C 12,6 km/h (3 Bft)
04/01/2012 23:40 7,8 C 87 % 1025,0 hPa 0,0 mm 12,2 km/h (2 Bft) S-SO 202 0 min 0 W/m 5,8 C 5,6 C 17,6 km/h (3 Bft)
04/01/2012 23:50 7,8 C 87 % 1024,9 hPa 0,0 mm 9,4 km/h (2 Bft) S-SO 202 0 min 0 W/m 5,8 C 6,1 C 14,4 km/h (3 Bft)
_ Min-Heure 09:10 16:00 01:40 - 16:50 - - - - 09:10 09:10 16:50
Minimum _ 4,1 C 71 % 1017,7 hPa - 0,0 km/h (0 Bft) - - - - 3,2 C 4,1 C 0,0 km/h (0 Bft)
_ Max-Heure 12:50 10:00 12:20 02:10 00:30 - - 23:50 23:50 02:10 12:50 01:40
Maximum _ 11,2 C 95 % 1030,4 hPa 0,4 mm 20,9 km/h
S-SO (4 Bft)
- - 0 min 0 W/m 9,3 C 11,2 C 32,8 km/h
S-SO (5 Bft)
Moyenne _ 8,0 C 87 % 1026,3 hPa #3,7 mm 4,4 km/h (1 Bft) SO - #0 min. 0 W/m 5,9 C 7,5 C 7,9 km/h (2 Bft)
Saint Bonnet de Bellac- Haute Vienne - France